ONEWEB-0080, 45426

Orbit data source: Space-Track

ONEWEB-0080, 45426 is a payload satellite owned by One Web (UK) in LEO that was launched on Sat, 21 Mar 2020 UTC via a SOYUZ-2-1B launch vehicle from the Tyuratam Missile And Space Complex (TTMTR). Payload-class satellites include a variety of spacecraft equipped with specific instruments for various scientific and technological missions. These include communications satellites like Starlink; space stations such as the ISS; scientific satellites like the Hubble; Earth observation satellites from companies like Planet Labs, Umbra, and HawkEye 360; GPS; miniature CubeSats for education and research; and military/defense satellites.

Loading next visibility...
Identifier
45426, 2020-020C
Orbit
LEO
Last TLE update
6 hours ago
Origin
Manufacturer
One Web
Mission
Operational Commercial Communications
Bus & Motor
ARROW, Unknown motor
Mass
148 kg wet, ~140 kg dry
Launch date (UTC)
2020-03-21 (5 years ago)
Launch vehicle
SOYUZ-2-1B
Launch site
Tyuratam Missile And Space Complex (TTMTR)
Object type
Payload
Rocket body
Debris
Shape & HBR
Trap Box + 2 Pan, 5 m
Radar Cross Section
2.957 m², Large (>1 m²)

Expand to show TLE details & history

TLE from 6 hours ago
0 ONEWEB-0080
1 45426U 20020C   25182.15187338 -.00000430  00000-0 -12485-2 0  9990
2 45426  87.8838  91.0318 0002234  83.9162 276.2220 13.11416000256705
Epoch: 2025-07-01T03:38Z
TLE epoch observation values (Epoch: 2025-07-01T03:38:41.86Z)
Latitude
-0.00004°
Longitude
116.90595°
Altitude
1,220.392 km
Speed
7.244 km/s
True Right ascension
06h 04m 07s
True Declination
0° 00' 00"
Sunlit
Object was in daylight at epoch
Visualization orbit readout
Latitude
27.03809°
Longitude
117.93432°
Altitude
1,220.049 km
Speed
7.247 km/s
Apparent Right ascension
07h 17m 32s
Apparent Declination
-3° 19' 17"
Sunlit
Object is in daylight
Visualization observer readout
Local Sidereal Time
20:54:46
Azimuth
37.304° NE
Elevation
-47.307°
Doppler factor
1
Orbital elements
Apogee altitude
1,216.501 km
Perigee altitude
1,213.108 km
Semi-major axis
7,592.942 km
Eccentricity
0.00022
Inclination
87.8838°
RAAN
91.0318°
Arg. of periapsis
83.9162°
True anomaly
Unknown
Mean anomaly
276.222°
Eccentric anomaly
Unknown
Mean motion
3.28041 °/min
Orbital period
109.74 mins
BSTAR
-0.0012485
Loading maneuver chart data...
Loading SW <> Apogee altitude chart data...
Loading historical data...
Loading historical data...
Loading historical data...
Loading historical data...
Loading historical data...
Loading historical data...
Loading historical data...

ONEWEB-0080 Visibility forecast

Observer location: undefined°, undefined°

Span
Click to sort rows by Start time (UTC) header in descending order
Start Az.
Max El. time (UTC)
Max El. Az.
Max El.
End time (UTC)
End Az.
7 mins2025-07-01 16:37:30.690Z100.507° ESE2025-07-01 16:41:30.690Z66.548° ENE14.176°2025-07-01 16:44:30.690Z41.714° NE
13 mins2025-07-01 18:23:30.690Z177.766° S2025-07-01 18:29:30.690Z165.867° S44.848°2025-07-01 18:36:30.690Z0.999° NNE
6 mins2025-07-01 20:18:30.690Z268.717° W2025-07-01 20:20:30.690Z286.707° WNW14.777°2025-07-01 20:24:30.690Z320.698° NNW
13 mins2025-07-02 05:53:30.690Z5.096° NNE2025-07-02 05:59:30.690Z87.295° E43.643°2025-07-02 06:06:30.690Z172.356° S
7 mins2025-07-02 07:45:30.690Z315.97° NNW2025-07-02 07:48:30.690Z287.072° WNW18.694°2025-07-02 07:52:30.690Z250.029° W
|